This is the latest recevied weather packets stored in our database for station/object XE2MEM-21. If no packets are shown the sender has not sent any weather packets the latest 10 day(s).
| Time | Temp. | Humidity | Pressure | Rain* | Wind** | Luminosity | Snow |
|---|---|---|---|---|---|---|---|
| 1778265755 | 27.22° C | 100% | 1006.5 hPa | - | - | - | - |
| 1778264855 | 27.78° C | 100% | 1006.7 hPa | - | - | - | - |
| 1778263955 | 26.67° C | 100% | 1006.9 hPa | - | - | - | - |
| 1778263054 | 26.67° C | 100% | 1007 hPa | - | - | - | - |
| 1778262154 | 27.78° C | 100% | 1007.3 hPa | - | - | - | - |
| 1778261254 | 26.67° C | 100% | 1007.5 hPa | - | - | - | - |
| 1778260354 | 26.11° C | 100% | 1007.7 hPa | - | - | - | - |
| 1778259454 | 26.67° C | 100% | 1008.1 hPa | - | - | - | - |
| 1778258554 | 25.56° C | 100% | 1008.3 hPa | - | - | - | - |
| 1778257654 | 25° C | 100% | 1008.4 hPa | - | - | - | - |
| 1778256754 | 25.56° C | 100% | 1008.4 hPa | - | - | - | - |
| 1778255854 | 25° C | 100% | 1008.5 hPa | - | - | - | - |
| 1778254954 | 23.89° C | 100% | 1008.9 hPa | - | - | - | - |
| 1778254054 | 23.89° C | 100% | 1009 hPa | - | - | - | - |
| 1778253153 | 23.89° C | 100% | 1009 hPa | - | - | - | - |
| 1778252253 | 23.89° C | 100% | 1008.8 hPa | - | - | - | - |
| 1778251353 | 23.33° C | 100% | 1008.8 hPa | - | - | - | - |
| 1778250453 | 22.78° C | 100% | 1008.9 hPa | - | - | - | - |
| 1778249553 | 22.78° C | 100% | 1008.8 hPa | - | - | - | - |
| 1778248653 | 22.22° C | 100% | 1009 hPa | - | - | - | - |
| 1778247753 | 22.78° C | 100% | 1008.9 hPa | - | - | - | - |
| 1778246853 | 22.22° C | 100% | 1008.9 hPa | - | - | - | - |
| 1778245953 | 22.22° C | 100% | 1009.1 hPa | - | - | - | - |
| 1778245053 | 21.67° C | 100% | 1009.3 hPa | - | - | - | - |
| 1778244153 | 21.67° C | 100% | 1009 hPa | - | - | - | - |
* Rain since midnight (hover to see other rain measurements)
** Current wind speed in m/s (hover to see current wind gust speed)